Location: ??????
(56.0120°N, 39.1740°E)
Time: 01:32:04
(UTC+00:00)

Cosmos 1782 - Pass Details

Date: 14 April 2026
Orbit: 459 x 464 km, 82.5° (Epoch: 20 May)

Event Time Altitude Azimuth Distance (km) Brightness Sun altitude
Exits shadow 21:41:41 39° 48° (NE) 707 3.6 -24.2°
Drops below altitude 10° 21:44:14 10° 20° (NNE) 1,621 6.2 -24.2°
Sets 21:46:21 0° 16° (NNE) 2,501 7.5 -24.2°
